When you browse on this site, cookies collect data to enhance your experience and personalize the content and advertising you see.
Visit our Privacy Policy to learn more. By continuing to use the site, you agree to this use of cookies and data.
  • In Lithuania
  • List of Countries
  • For 7 days
  • Water Temperature
  • Satellite Maps
  • Weather Map
  • Weather Widgets
  • user-avatar
    Login

    Hourly Weather Rechische

    Today, 21 May, Tuesday

    Time Temperature Precipitation Wind Pressure Humidity
    00:00 +15°C° 0 mm 2 mps 743 mmHg 84%
    01:00 +15°C° 0 mm 2 mps 743 mmHg 84%
    02:00 +14°C° 0 mm 2 mps 743 mmHg 80%
    03:00 +14°C° 0 mm 2 mps 743 mmHg 81%
    04:00 +15°C° 0 mm 2 mps 743 mmHg 82%
    05:00 +15°C° 0 mm 2 mps 743 mmHg 83%
    06:00 +17°C° 0 mm 2 mps 743 mmHg 74%
    07:00 +19°C° 0 mm 2 mps 743 mmHg 66%
    08:00 +22°C° 0 mm 3 mps 743 mmHg 56%
    09:00 +24°C° 0 mm 3 mps 742 mmHg 49%
    10:00 +25°C° 0 mm 4 mps 742 mmHg 42%
    11:00 +26°C° 0 mm 4 mps 742 mmHg 35%
    12:00 +26°C° 0 mm 4 mps 742 mmHg 34%
    13:00 +26°C° 0 mm 4 mps 741 mmHg 34%
    14:00 +27°C° 0 mm 4 mps 741 mmHg 33%
    15:00 +26°C° 0 mm 3 mps 741 mmHg 37%
    16:00 +25°C° 0 mm 3 mps 740 mmHg 40%
    17:00 +25°C° 0 mm 2 mps 740 mmHg 44%
    18:00 +23°C° 0 mm 2 mps 740 mmHg 50%
    19:00 +20°C° 0 mm 2 mps 739 mmHg 57%
    20:00 +20°C° 0 mm 1 mps 739 mmHg 63%
    21:00 +18°C° 0 mm 2 mps 739 mmHg 65%
    22:00 +18°C° 0 mm 2 mps 739 mmHg 66%
    23:00 +17°C° 0 mm 2 mps 739 mmHg 68%

    Tomorrow, 22 May, Wednesday

    Time Temperature Precipitation Wind Pressure Humidity
    00:00 +16°C° 0 mm 2 mps 739 mmHg 70%
    01:00 +16°C° 0 mm 2 mps 739 mmHg 71%
    02:00 +15°C° 0 mm 2 mps 738 mmHg 73%
    03:00 +15°C° 0 mm 2 mps 738 mmHg 74%
    04:00 +15°C° 0 mm 2 mps 738 mmHg 76%
    05:00 +15°C° 0 mm 2 mps 738 mmHg 77%
    06:00 +17°C° 0 mm 3 mps 738 mmHg 73%
    07:00 +19°C° 0 mm 3 mps 737 mmHg 68%
    08:00 +20°C° 0 mm 3 mps 737 mmHg 63%
    09:00 +21°C° 0 mm 3 mps 737 mmHg 59%
    10:00 +22°C° 0 mm 3 mps 737 mmHg 54%
    11:00 +24°C° 0 mm 3 mps 736 mmHg 50%
    12:00 +24°C° 0.7 mm 3 mps 736 mmHg 54%
    13:00 +24°C° 0.7 mm 3 mps 736 mmHg 57%
    14:00 +24°C° 0.7 mm 3 mps 735 mmHg 61%
    15:00 +23°C° 0.7 mm 2 mps 735 mmHg 66%
    16:00 +22°C° 0.7 mm 1 mps 735 mmHg 72%
    17:00 +22°C° 0.7 mm 1 mps 734 mmHg 78%
    18:00 +20°C° 0.3 mm 1 mps 734 mmHg 81%
    19:00 +19°C° 0.3 mm 1 mps 734 mmHg 85%
    20:00 +16°C° 0.3 mm 0 mps 734 mmHg 88%
    21:00 +16°C° 0.4 mm 1 mps 734 mmHg 90%
    22:00 +15°C° 0.4 mm 1 mps 734 mmHg 92%
    23:00 +15°C° 0.4 mm 1 mps 734 mmHg 94%

    Day after tomorrow, 23 May, Thursday

    Time Temperature Precipitation Wind Pressure Humidity
    00:00 +14°C° 0 mm 1 mps 734 mmHg 95%
    01:00 +14°C° 0 mm 1 mps 734 mmHg 96%
    02:00 +13°C° 0 mm 1 mps 734 mmHg 96%
    03:00 +13°C° 0 mm 2 mps 734 mmHg 96%
    04:00 +13°C° 0 mm 2 mps 734 mmHg 97%
    05:00 +12°C° 0 mm 3 mps 735 mmHg 97%
    06:00 +12°C° 0 mm 3 mps 735 mmHg 95%
    07:00 +12°C° 0 mm 3 mps 735 mmHg 94%
    08:00 +12°C° 0 mm 4 mps 736 mmHg 92%
    09:00 +12°C° 0 mm 4 mps 736 mmHg 88%
    10:00 +12°C° 0 mm 3 mps 736 mmHg 84%
    11:00 +13°C° 0 mm 3 mps 737 mmHg 80%
    12:00 +14°C° 0 mm 3 mps 737 mmHg 66%
    13:00 +17°C° 0 mm 3 mps 737 mmHg 53%
    14:00 +19°C° 0 mm 3 mps 737 mmHg 39%
    15:00 +18°C° 0 mm 3 mps 737 mmHg 39%
    16:00 +18°C° 0 mm 3 mps 737 mmHg 40%
    17:00 +17°C° 0 mm 3 mps 737 mmHg 40%
    18:00 +14°C° 0 mm 3 mps 738 mmHg 47%
    19:00 +13°C° 0 mm 2 mps 738 mmHg 55%
    20:00 +10°C° 0 mm 2 mps 738 mmHg 63%
    21:00 +9°C° 0 mm 2 mps 739 mmHg 64%
    22:00 +8°C° 0 mm 2 mps 739 mmHg 66%
    23:00 +7°C° 0 mm 2 mps 739 mmHg 68%

    24 May, Friday

    Time Temperature Precipitation Wind Pressure Humidity
    00:00 +6°C° 0 mm 2 mps 740 mmHg 70%
    01:00 +6°C° 0 mm 2 mps 740 mmHg 72%
    02:00 +5°C° 0 mm 2 mps 740 mmHg 74%
    03:00 +5°C° 0 mm 2 mps 740 mmHg 70%
    04:00 +6°C° 0 mm 2 mps 740 mmHg 67%
    05:00 +6°C° 0 mm 2 mps 740 mmHg 63%
    06:00 +8°C° 0 mm 2 mps 740 mmHg 57%
    07:00 +10°C° 0 mm 2 mps 740 mmHg 50%
    08:00 +13°C° 0 mm 2 mps 740 mmHg 44%
    09:00 +13°C° 0 mm 3 mps 740 mmHg 41%
    10:00 +14°C° 0 mm 3 mps 740 mmHg 39%
    11:00 +17°C° 0 mm 3 mps 740 mmHg 37%
    12:00 +17°C° 0 mm 3 mps 739 mmHg 37%
    13:00 +18°C° 0 mm 3 mps 739 mmHg 36%
    14:00 +19°C° 0 mm 3 mps 739 mmHg 36%
    15:00 +19°C° 0 mm 3 mps 738 mmHg 39%
    16:00 +19°C° 0 mm 3 mps 738 mmHg 41%
    17:00 +19°C° 0 mm 3 mps 737 mmHg 43%
    18:00 +17°C° 0 mm 3 mps 737 mmHg 52%
    19:00 +14°C° 0 mm 3 mps 737 mmHg 60%
    20:00 +13°C° 0 mm 2 mps 737 mmHg 69%
    21:00 +13°C° 0 mm 2 mps 737 mmHg 71%
    22:00 +12°C° 0 mm 3 mps 736 mmHg 73%
    23:00 +11°C° 0 mm 3 mps 736 mmHg 76%

    25 May, Saturday

    Time Temperature Precipitation Wind Pressure Humidity
    00:00 +11°C° 0.3 mm 3 mps 736 mmHg 81%
    01:00 +12°C° 0.3 mm 3 mps 736 mmHg 87%
    02:00 +12°C° 0.3 mm 3 mps 735 mmHg 93%
    03:00 +12°C° 0.4 mm 3 mps 735 mmHg 93%
    04:00 +12°C° 0.4 mm 3 mps 735 mmHg 94%
    05:00 +12°C° 0.4 mm 3 mps 734 mmHg 95%
    06:00 +12°C° 0.1 mm 3 mps 734 mmHg 94%
    07:00 +13°C° 0.1 mm 3 mps 734 mmHg 93%
    08:00 +14°C° 0.1 mm 3 mps 734 mmHg 91%
    09:00 +14°C° 0.1 mm 3 mps 734 mmHg 89%
    10:00 +16°C° 0.1 mm 3 mps 733 mmHg 87%
    11:00 +17°C° 0.1 mm 3 mps 733 mmHg 84%
    12:00 +18°C° 0.3 mm 3 mps 733 mmHg 82%
    13:00 +19°C° 0.3 mm 2 mps 732 mmHg 79%
    14:00 +20°C° 0.3 mm 2 mps 732 mmHg 77%
    15:00 +19°C° 1.2 mm 2 mps 731 mmHg 80%
    16:00 +19°C° 1.2 mm 2 mps 731 mmHg 83%
    17:00 +19°C° 1.2 mm 2 mps 730 mmHg 87%
    18:00 +19°C° 1.9 mm 1 mps 730 mmHg 89%
    19:00 +18°C° 1.9 mm 1 mps 730 mmHg 92%
    20:00 +16°C° 1.9 mm 1 mps 729 mmHg 94%
    21:00 +15°C° 0.2 mm 1 mps 729 mmHg 95%
    22:00 +15°C° 0.2 mm 1 mps 729 mmHg 96%
    23:00 +14°C° 0.2 mm 1 mps 728 mmHg 96%

    26 May, Sunday

    Time Temperature Precipitation Wind Pressure Humidity
    00:00 +14°C° 0 mm 1 mps 728 mmHg 97%
    01:00 +14°C° 0 mm 1 mps 728 mmHg 97%
    02:00 +13°C° 0 mm 1 mps 727 mmHg 97%
    03:00 +14°C° 0.1 mm 1 mps 727 mmHg 97%
    04:00 +14°C° 0.1 mm 1 mps 727 mmHg 97%
    05:00 +14°C° 0.1 mm 2 mps 727 mmHg 97%
    06:00 +15°C° 0.2 mm 2 mps 727 mmHg 96%
    07:00 +15°C° 0.2 mm 2 mps 727 mmHg 94%
    08:00 +16°C° 0.2 mm 2 mps 727 mmHg 92%
    09:00 +16°C° 0.6 mm 2 mps 727 mmHg 92%
    10:00 +16°C° 0.6 mm 3 mps 727 mmHg 91%
    11:00 +16°C° 0.6 mm 3 mps 727 mmHg 90%
    12:00 +16°C° 0.7 mm 3 mps 727 mmHg 88%
    13:00 +15°C° 0.7 mm 4 mps 727 mmHg 86%
    14:00 +17°C° 0.7 mm 4 mps 727 mmHg 84%
    15:00 +17°C° 0.3 mm 4 mps 727 mmHg 81%
    16:00 +15°C° 0.3 mm 4 mps 726 mmHg 77%
    17:00 +15°C° 0.3 mm 4 mps 726 mmHg 73%
    18:00 +14°C° 0 mm 3 mps 726 mmHg 76%
    19:00 +14°C° 0 mm 2 mps 726 mmHg 80%
    20:00 +12°C° 0 mm 2 mps 726 mmHg 83%
    21:00 +10°C° 0 mm 2 mps 726 mmHg 86%
    22:00 +9°C° 0 mm 2 mps 726 mmHg 90%
    23:00 +9°C° 0 mm 2 mps 727 mmHg 94%
    Show more